[[{"header":{"parameterUnit":"m.s-1","parameterCategory":1,"la1":30.2991,"la2":30.254,"lo1":-89.0895,"lo2":-89.0444,"dy":0.0017,"dx":0.0017,"nx":28,"ny":28,"refTime":"2024-08-12T03:00:00:Z","depth":0,"parameterNumber":2,"parameterNumberName":"U-component_of_WINDS"},"data":[0,0,0,0,0,0,0,0,0,0,0,0,0,0,0,0,0,0,0,0,0,0,0,0,0,0,0,0,0,0,0,0,0,0,0,0,0,0,0,0,0,0,0,0,0,0,0,0,0,0,0,0,0,0,0,0,0,0,0.9806,0.9807,0,0.9943,0.9945,0.9946,0.9999,0.9999,0.9998,0.9998,1.0141,1.0145,1.015,0,0,0,0,0,0,0,0,0,0,0,0,0,0.959,0.9593,0.9806,0.9807,0.9809,0.9943,0.9945,0.9947,0.9999,0.9999,0.9998,0.9998,1.014,1.0145,1.015,0,0,0,0,0,0,0,0,0,0,0,0,0,0.9701,0.9595,0.9805,0.9851,0.9857,0.9943,0.9945,0.9947,0.9999,0.9999,0.9998,0.9997,1.0138,1.0144,1.0151,1.0202,0,0,1.017,1.0173,0,0,0,0,0,0,0,0,0.9695,0.9709,0.9843,0.9848,0.9855,0.9953,0.9921,1.0033,0.9999,0.9945,0.9998,0.9997,1.0079,1.009,1.0118,1.0208,1.0214,1.017,1.0174,1.0177,1.0179,0,0,0,0,0,0,0,0.9687,0.9703,0.986,0.9845,0.9852,0.9865,0.9881,0.9943,1.0014,0.995,0.9954,0.9969,1.0083,1.0111,1.0121,1.0217,1.017,1.0176,1.018,1.0182,1.0354,1.0355,0,0,0,0,0,0,0.9671,0.9696,0.9856,0.9864,0.9771,0.987,0.9887,0.9922,1.0014,1.0027,0.997,0.9971,1.0101,1.0114,1.0127,1.0192,1.0177,1.0183,1.0186,1.0354,1.0355,1.0355,0,0,0,0,0,0,0.9666,0.9685,0.985,0.9782,0.9804,0.9874,0.9914,0.9925,0.9954,1.0029,1.0042,0.9986,1.0101,1.0118,1.0182,1.0197,1.0186,1.0191,1.0353,1.0354,1.0355,1.0322,0,0,0,0,0,0,0.966,0.9683,0.9703,0.9782,0.9807,0.9903,0.9915,0.9928,0.9965,0.9968,1.0048,1.006,1.0102,1.0172,1.0188,1.0206,1.0196,1.0352,1.0353,1.0355,1.0322,1.0322,1.0322,0,0,0,0,0,0.9652,0.9689,0.9704,0.9723,0.9833,0.9904,0.9918,0.9965,0.9966,0.9986,1.0034,1.0058,1.0193,1.0178,1.0197,1.0216,1.0351,1.0353,1.0354,1.0322,1.0322,1.0322,0,0,0,0,0,0,0.9611,0.97,0.9717,0.9781,0.9834,0.9912,0.994,0.9963,1.0018,1.0019,1.0076,1.0093,1.0152,1.0191,1.0173,1.027,1.0274,1.0279,1.0242,1.0243,1.0243,1.0232,1.0201,0,0,0,0,0,0.9609,0.9659,0.9734,0.9782,0.9808,0.9869,0.9902,0.9933,0.999,1.0014,1.0066,1.0122,1.0177,1.0212,1.0267,1.0327,1.0345,1.035,1.035,1.0349,1.0353,1.0387,1.039,1.0361,1.0361,1.0361,0,0,0.9607,0.9661,0.9689,0.9775,0.9821,0.987,0.9888,0.994,0.9978,1.0022,1.0085,1.0125,1.0191,1.0253,1.0284,1.0287,1.0365,1.0351,1.0351,1.0355,1.0389,1.0392,1.0394,1.0363,1.0362,1.0362,0,0,0.9627,0.9673,0.9718,0.9762,0.983,0.987,0.988,0.9955,0.9983,1.0047,1.0081,1.0126,1.022,1.0265,1.0301,1.0336,1.0359,1.0352,1.0351,1.0384,1.0386,1.0388,1.04,1.0404,1.0356,1.0356,1.0356,0,0.9615,0.9691,0.9738,0.9788,0.9825,0.9866,0.9912,0.9953,1.0035,1.0059,1.0062,1.0179,1.0227,1.03,1.0308,1.0335,1.0349,1.0344,1.0382,1.0384,1.0387,1.0399,1.0404,1.0354,1.0355,1.0355,1.0355,0,0.9672,0.9724,0.9753,0.9829,0.9869,0.9917,0.9972,1.0007,1.0034,1.0073,1.0138,1.0196,1.0262,1.0282,1.0309,1.0358,1.0358,1.0371,1.0376,1.0388,1.04,1.0405,1.0352,1.0353,1.0353,1.0354,0,0,0.9672,0.9773,0.9783,0.9817,0.9894,0.9935,0.9984,1.0048,1.0077,1.0132,1.0174,1.0251,1.0263,1.0303,1.0336,1.0364,1.0387,1.0373,1.0375,1.0373,1.0443,1.0433,1.0438,1.0403,1.0404,1.0405,1.0437,0,0.9702,0.9791,0.9834,0.9905,0.9953,0.9991,1.0034,1.0085,1.0123,1.017,1.0213,1.0266,1.0277,1.0302,1.0331,1.0378,1.0402,1.0376,1.0443,1.0445,1.0425,1.0444,1.0435,1.0463,1.0443,1.0443,1.0444,0,0.9749,0.9802,0.9876,0.9946,0.9968,1.0005,1.0067,1.0111,1.017,1.0196,1.0239,1.027,1.0323,1.0324,1.0398,1.0379,1.0409,1.0435,1.0438,1.0446,1.0445,1.0453,1.0473,1.0477,1.0452,1.0452,1.0451,0,0.974,0.983,0.9886,0.9915,0.9998,1.0023,1.0059,1.0117,1.0152,1.0206,1.0229,1.0289,1.0321,1.0367,1.0414,1.041,1.0482,1.0487,1.0505,1.0504,1.0519,1.0518,1.0544,1.0538,1.0538,1.0538,1.0538,0,0.9769,0.9813,0.9883,0.9918,0.9968,1.0017,1.0066,1.0104,1.0156,1.0198,1.0235,1.0275,1.0334,1.0381,1.0418,1.0473,1.0487,1.051,1.0519,1.0506,1.0503,1.0527,1.0526,1.0539,1.0539,1.0539,1.0539,0,0.9768,0.9817,0.988,0.9953,0.9972,1.0006,1.0068,1.0103,1.0142,1.0195,1.021,1.0272,1.0329,1.038,1.0455,1.048,1.0536,1.0548,1.0516,1.0521,1.0536,1.0534,1.0579,1.0587,1.0575,1.0575,1.0575,0,0.9783,0.9818,0.9893,0.9924,0.9959,1.0008,1.0043,1.0093,1.0129,1.0197,1.0224,1.0283,1.0333,1.0422,1.0474,1.0531,1.0545,1.0556,1.0554,1.0539,1.0545,1.0542,1.0545,1.0556,1.0556,1.0556,1.0556,0,0.9804,0.9827,0.9876,0.9934,0.9975,1.0023,1.0073,1.0096,1.0155,1.0193,1.025,1.0289,1.0365,1.0423,1.0486,1.0524,1.0549,1.0556,1.0563,1.0551,1.0531,1.0541,1.0514,1.0555,1.0555,1.0555,1.0555,1.0555,0.9812,0.9844,0.9902,0.9956,0.9997,1.0042,1.0078,1.0121,1.017,1.0235,1.0261,1.032,1.0377,1.0464,1.0501,1.0548,1.0553,1.0563,1.0566,1.0568,1.0565,1.0523,1.056,1.056,1.056,1.056,1.056,0,0.9835,0.9874,0.9923,0.999,1.0032,1.0051,1.0106,1.014,1.0191,1.0242,1.0289,1.0355,1.0411,1.0467,1.0526,1.0552,1.0566,1.0566,1.0565,1.0573,1.0558,1.0545,1.0554,1.0554,1.0554,1.0554,1.0554,1.0554,0.9852,0.9907,0.9935,1.0011,1.005,1.0107,1.0137,1.0178,1.0218,1.029,1.0336,1.0372,1.0424,1.0487,1.0539,1.0554,1.0574,1.0571,1.0589,1.0574,1.0574,1.0574,1.0563,1.0575,1.0575,1.0601,1.0601,1.0601]},{"header":{"parameterUnit":"m.s-1","parameterCategory":1,"la1":30.2991,"la2":30.254,"lo1":-89.0895,"lo2":-89.0444,"dy":0.0017,"dx":0.0017,"nx":28,"ny":28,"refTime":"2024-08-12T03:00:00:Z","depth":0,"parameterNumber":3,"parameterNumberName":"V-component_of_WINDS"},"data":[0,0,0,0,0,0,0,0,0,0,0,0,0,0,0,0,0,0,0,0,0,0,0,0,0,0,0,0,0,0,0,0,0,0,0,0,0,0,0,0,0,0,0,0,0,0,0,0,0,0,0,0,0,0,0,0,0,0,4.522,4.5219,0,4.5162,4.5161,4.5161,4.5123,4.5123,4.5122,4.5122,4.5059,4.5058,4.5056,0,0,0,0,0,0,0,0,0,0,0,0,0,4.5293,4.5292,4.522,4.5219,4.5218,4.5162,4.5161,4.516,4.5123,4.5123,4.5122,4.5122,4.506,4.5058,4.5056,0,0,0,0,0,0,0,0,0,0,0,0,0,4.5251,4.5291,4.522,4.5193,4.519,4.5162,4.5161,4.516,4.5123,4.5123,4.5122,4.5122,4.506,4.5058,4.5056,4.505,0,0,4.5049,4.5049,0,0,0,0,0,0,0,0,4.5253,4.5248,4.5197,4.5195,4.5191,4.5149,4.5164,4.5123,4.5123,4.5148,4.5122,4.5122,4.5089,4.5085,4.5075,4.5047,4.5044,4.5049,4.5048,4.5047,4.5046,0,0,0,0,0,0,0,4.5256,4.525,4.5197,4.5197,4.5193,4.5182,4.5176,4.5156,4.5121,4.5146,4.5143,4.5137,4.5087,4.5077,4.5073,4.5043,4.5049,4.5047,4.5046,4.5045,4.5005,4.5005,0,0,0,0,0,0,4.5264,4.5253,4.5198,4.5195,4.5222,4.5181,4.5174,4.5163,4.5121,4.5115,4.5137,4.5135,4.5081,4.5075,4.507,4.5059,4.5047,4.5045,4.5044,4.5004,4.5005,4.5005,0,0,0,0,0,0,4.5265,4.5259,4.5201,4.5223,4.5215,4.518,4.5168,4.5162,4.5151,4.5115,4.5108,4.5133,4.508,4.5074,4.5055,4.5056,4.5044,4.5042,4.5004,4.5004,4.5005,4.5036,0,0,0,0,0,0,4.5268,4.526,4.5259,4.5223,4.5214,4.5188,4.5168,4.5161,4.5148,4.5145,4.5109,4.5103,4.5079,4.5058,4.5053,4.5053,4.504,4.5004,4.5004,4.5005,4.5035,4.5037,4.504,0,0,0,0,0,4.527,4.5269,4.5259,4.5252,4.5211,4.5188,4.5182,4.5157,4.5149,4.5146,4.5122,4.5104,4.5057,4.5057,4.505,4.505,4.5004,4.5004,4.5005,4.5034,4.5037,4.504,0,0,0,0,0,0,4.5304,4.5264,4.5252,4.524,4.5218,4.5182,4.5178,4.5161,4.514,4.5138,4.5105,4.5098,4.5082,4.5064,4.5064,4.504,4.5028,4.5027,4.5052,4.5055,4.5058,4.5062,4.5038,0,0,0,0,0,4.5311,4.5297,4.5262,4.5254,4.5244,4.5213,4.5201,4.5183,4.5159,4.5149,4.5124,4.51,4.5079,4.5066,4.5045,4.5032,4.5022,4.5028,4.5031,4.5033,4.5032,4.5022,4.5023,4.5006,4.5006,4.5006,0,0,4.5323,4.5299,4.5292,4.526,4.5241,4.5225,4.5205,4.519,4.5177,4.5146,4.5127,4.5108,4.5078,4.5062,4.5053,4.5046,4.5035,4.5034,4.5036,4.5034,4.5022,4.5024,4.5026,4.5007,4.5007,4.5007,0,0,4.5337,4.5319,4.531,4.5291,4.5262,4.5242,4.5239,4.5206,4.5192,4.5173,4.5148,4.5132,4.5098,4.5078,4.5063,4.5068,4.505,4.5062,4.5075,4.5065,4.5066,4.5067,4.5067,4.5068,4.5062,4.5062,4.5062,0,4.5356,4.5333,4.5307,4.5293,4.5278,4.5251,4.524,4.5223,4.5188,4.5178,4.5171,4.5127,4.5105,4.5083,4.5084,4.5073,4.5068,4.5066,4.5068,4.5069,4.507,4.5069,4.507,4.5063,4.5063,4.5063,4.5063,0,4.5356,4.534,4.5336,4.5305,4.529,4.5278,4.5248,4.5236,4.5219,4.5199,4.5178,4.5151,4.5123,4.5117,4.51,4.5091,4.5087,4.5075,4.5062,4.5073,4.5072,4.5072,4.5065,4.5065,4.5064,4.5064,0,0,4.539,4.5344,4.5343,4.5328,4.5294,4.528,4.5266,4.524,4.5229,4.5206,4.5192,4.5163,4.5151,4.5134,4.5115,4.5106,4.511,4.5094,4.5093,4.5097,4.5097,4.5106,4.5106,4.5098,4.5098,4.5098,4.5099,0,4.5398,4.5373,4.5348,4.5331,4.5315,4.5287,4.5274,4.5251,4.5231,4.5214,4.5191,4.517,4.5157,4.5146,4.5137,4.5112,4.5109,4.5111,4.5083,4.5082,4.509,4.5106,4.5116,4.5118,4.5098,4.5098,4.5098,0,4.5404,4.5384,4.5365,4.5331,4.5323,4.5313,4.5286,4.527,4.5242,4.5228,4.5209,4.5188,4.517,4.5159,4.5132,4.5134,4.512,4.5106,4.5105,4.5101,4.509,4.5101,4.5118,4.5118,4.5098,4.5098,4.5098,0,4.5429,4.5396,4.538,4.5368,4.5329,4.5322,4.5305,4.5277,4.5263,4.5239,4.5229,4.5203,4.5189,4.5168,4.514,4.5135,4.5115,4.5102,4.5101,4.5101,4.5097,4.5098,4.5112,4.509,4.509,4.509,4.509,0,4.544,4.5429,4.5391,4.5381,4.5367,4.5339,4.5325,4.5306,4.5281,4.5265,4.524,4.5225,4.519,4.517,4.5148,4.5128,4.5121,4.5108,4.5102,4.511,4.5111,4.51,4.5099,4.5091,4.509,4.509,4.509,0,4.5466,4.544,4.542,4.5385,4.5376,4.5367,4.5336,4.5324,4.5303,4.5283,4.5277,4.5243,4.5218,4.5188,4.5154,4.5139,4.512,4.5112,4.513,4.5127,4.5126,4.5126,4.5133,4.5131,4.5112,4.5113,4.5113,0,4.5474,4.5465,4.5429,4.5417,4.5401,4.5383,4.5368,4.5339,4.5325,4.5292,4.5284,4.5258,4.5235,4.5197,4.5168,4.5141,4.5131,4.5135,4.5127,4.5135,4.513,4.513,4.5128,4.5137,4.5138,4.5138,4.5138,0,4.5491,4.5478,4.5459,4.5435,4.5418,4.5397,4.5375,4.5367,4.5333,4.5317,4.5293,4.5276,4.5241,4.5215,4.5184,4.5164,4.5145,4.5141,4.5139,4.5146,4.5157,4.515,4.5135,4.5141,4.5141,4.514,4.514,4.514,4.5506,4.5497,4.547,4.5449,4.5429,4.5409,4.5396,4.5373,4.5353,4.5324,4.5307,4.5283,4.5253,4.521,4.5191,4.517,4.5163,4.5161,4.516,4.516,4.5161,4.5161,4.5165,4.5165,4.5164,4.5164,4.5164,0,4.5521,4.5502,4.5483,4.5454,4.5437,4.5422,4.5396,4.5382,4.5362,4.5337,4.5315,4.5286,4.5261,4.5229,4.5201,4.519,4.518,4.5183,4.5183,4.5179,4.517,4.5174,4.5192,4.5192,4.5192,4.5192,4.5192,4.5192,4.5526,4.5509,4.5493,4.5465,4.5446,4.5423,4.5409,4.539,4.537,4.5339,4.5318,4.5299,4.527,4.524,4.5215,4.5206,4.5196,4.5202,4.519,4.5182,4.518,4.5177,4.5181,4.52,4.52,4.5201,4.5201,4.5201]}]]